• în Republica Moldova
  • Lista ţărilor
  • Pe 7 zile
  • Temperatura apei
  • Hartă satelitară
  • Meteo pe hartă
  • Widget-uri
  • user-avatar
    Intrare

    Meteo pe oră la Linz

    Astăzi, 24 Martie, Vineri

    Timp Temperatura Precipitaţii Vânt Presiune Umiditate
    00:00 +6°C° 0 mm 1 m/s 735 mmHg 94%
    01:00 +6°C° 0 mm 1 m/s 735 mmHg 94%
    02:00 +6°C° 0 mm 1 m/s 736 mmHg 94%
    03:00 +5°C° 0 mm 1 m/s 736 mmHg 94%
    04:00 +5°C° 0 mm 1 m/s 736 mmHg 94%
    05:00 +5°C° 0 mm 1 m/s 737 mmHg 93%
    06:00 +6°C° 0 mm 1 m/s 737 mmHg 92%
    07:00 +6°C° 0 mm 1 m/s 738 mmHg 91%
    08:00 +7°C° 0 mm 2 m/s 738 mmHg 86%
    09:00 +9°C° 0 mm 2 m/s 738 mmHg 81%
    10:00 +11°C° 0 mm 3 m/s 738 mmHg 76%
    11:00 +12°C° 0 mm 3 m/s 738 mmHg 74%
    12:00 +13°C° 0 mm 3 m/s 739 mmHg 72%
    13:00 +14°C° 0 mm 4 m/s 739 mmHg 70%
    14:00 +14°C° 0 mm 4 m/s 739 mmHg 72%
    15:00 +13°C° 0 mm 4 m/s 739 mmHg 74%
    16:00 +13°C° 0 mm 4 m/s 739 mmHg 76%
    17:00 +11°C° 0 mm 4 m/s 739 mmHg 82%
    18:00 +9°C° 0 mm 3 m/s 739 mmHg 87%
    19:00 +8°C° 0 mm 3 m/s 740 mmHg 93%
    20:00 +7°C° 0 mm 3 m/s 740 mmHg 93%
    21:00 +7°C° 0 mm 3 m/s 740 mmHg 93%
    22:00 +5°C° 0 mm 3 m/s 741 mmHg 93%
    23:00 +5°C° 0 mm 3 m/s 741 mmHg 93%

    Mâine, 25 Martie, Sâmbătă

    Timp Temperatura Precipitaţii Vânt Presiune Umiditate
    00:00 +4°C° 0 mm 3 m/s 741 mmHg 93%
    01:00 +4°C° 0 mm 3 m/s 741 mmHg 93%
    02:00 +4°C° 0 mm 3 m/s 741 mmHg 93%
    03:00 +3°C° 0 mm 3 m/s 741 mmHg 93%
    04:00 +4°C° 0 mm 2 m/s 741 mmHg 93%
    05:00 +3°C° 0 mm 3 m/s 741 mmHg 92%
    06:00 +3°C° 0 mm 3 m/s 741 mmHg 90%
    07:00 +3°C° 0 mm 3 m/s 741 mmHg 89%
    08:00 +5°C° 0 mm 3 m/s 741 mmHg 82%
    09:00 +7°C° 0 mm 4 m/s 741 mmHg 75%
    10:00 +10°C° 0 mm 4 m/s 740 mmHg 69%
    11:00 +11°C° 0 mm 4 m/s 740 mmHg 66%
    12:00 +12°C° 0 mm 4 m/s 739 mmHg 64%
    13:00 +13°C° 0 mm 4 m/s 739 mmHg 61%
    14:00 +12°C° 0 mm 4 m/s 738 mmHg 63%
    15:00 +12°C° 0 mm 4 m/s 738 mmHg 64%
    16:00 +12°C° 0 mm 4 m/s 737 mmHg 66%
    17:00 +10°C° 0 mm 4 m/s 737 mmHg 70%
    18:00 +9°C° 0 mm 3 m/s 737 mmHg 75%
    19:00 +7°C° 0 mm 3 m/s 737 mmHg 80%
    20:00 +5°C° 0 mm 3 m/s 737 mmHg 80%
    21:00 +5°C° 0 mm 3 m/s 737 mmHg 80%
    22:00 +4°C° 0 mm 3 m/s 737 mmHg 80%
    23:00 +5°C° 0 mm 2 m/s 737 mmHg 81%

    Poimâine, 26 Martie, Duminică

    Timp Temperatura Precipitaţii Vânt Presiune Umiditate
    00:00 +4°C° 0 mm 2 m/s 736 mmHg 82%
    01:00 +4°C° 0 mm 2 m/s 736 mmHg 83%
    02:00 +4°C° 0 mm 2 m/s 736 mmHg 84%
    03:00 +3°C° 0 mm 2 m/s 736 mmHg 85%
    04:00 +3°C° 0 mm 2 m/s 735 mmHg 86%
    05:00 +3°C° 0 mm 2 m/s 735 mmHg 85%
    06:00 +4°C° 0 mm 2 m/s 735 mmHg 84%
    07:00 +5°C° 0 mm 1 m/s 736 mmHg 83%
    08:00 +6°C° 0 mm 2 m/s 736 mmHg 77%
    09:00 +8°C° 0 mm 2 m/s 736 mmHg 70%
    10:00 +10°C° 0 mm 2 m/s 736 mmHg 64%
    11:00 +12°C° 0 mm 2 m/s 736 mmHg 63%
    12:00 +12°C° 0 mm 2 m/s 736 mmHg 61%
    13:00 +13°C° 0 mm 2 m/s 736 mmHg 59%
    14:00 +13°C° 0 mm 2 m/s 736 mmHg 62%
    15:00 +11°C° 0 mm 3 m/s 736 mmHg 65%
    16:00 +11°C° 0 mm 3 m/s 736 mmHg 68%
    17:00 +9°C° 0 mm 3 m/s 736 mmHg 74%
    18:00 +8°C° 0 mm 2 m/s 737 mmHg 81%
    19:00 +6°C° 0 mm 2 m/s 737 mmHg 88%
    20:00 +6°C° 0 mm 2 m/s 738 mmHg 89%
    21:00 +5°C° 0 mm 2 m/s 738 mmHg 90%
    22:00 +5°C° 0 mm 2 m/s 739 mmHg 91%
    23:00 +4°C° 0 mm 2 m/s 739 mmHg 91%

    27 Martie, Luni

    Timp Temperatura Precipitaţii Vânt Presiune Umiditate
    00:00 +4°C° 0 mm 2 m/s 739 mmHg 92%
    01:00 +3°C° 0 mm 2 m/s 739 mmHg 92%
    02:00 +4°C° 0 mm 1 m/s 739 mmHg 92%
    03:00 +3°C° 0 mm 1 m/s 739 mmHg 93%
    04:00 +3°C° 0 mm 1 m/s 739 mmHg 93%
    05:00 +3°C° 0 mm 1 m/s 739 mmHg 90%
    06:00 +4°C° 0 mm 1 m/s 739 mmHg 87%
    07:00 +5°C° 0 mm 1 m/s 739 mmHg 84%
    08:00 +6°C° 0 mm 2 m/s 739 mmHg 75%
    09:00 +8°C° 0 mm 2 m/s 739 mmHg 66%
    10:00 +10°C° 0 mm 3 m/s 739 mmHg 57%
    11:00 +11°C° 0 mm 3 m/s 739 mmHg 54%
    12:00 +12°C° 0 mm 3 m/s 739 mmHg 51%
    13:00 +13°C° 0 mm 3 m/s 739 mmHg 48%
    14:00 +13°C° 0 mm 3 m/s 739 mmHg 50%
    15:00 +13°C° 0 mm 3 m/s 738 mmHg 53%
    16:00 +13°C° 0 mm 3 m/s 738 mmHg 55%
    17:00 +11°C° 0 mm 3 m/s 738 mmHg 62%
    18:00 +8°C° 0 mm 3 m/s 739 mmHg 69%
    19:00 +6°C° 0 mm 2 m/s 739 mmHg 76%
    20:00 +6°C° 0 mm 2 m/s 739 mmHg 75%
    21:00 +5°C° 0 mm 2 m/s 739 mmHg 74%
    22:00 +5°C° 0 mm 2 m/s 740 mmHg 74%
    23:00 +5°C° 0 mm 2 m/s 740 mmHg 75%

    28 Martie, Marţi

    Timp Temperatura Precipitaţii Vânt Presiune Umiditate
    00:00 +4°C° 0 mm 2 m/s 740 mmHg 75%
    01:00 +4°C° 0 mm 2 m/s 739 mmHg 76%
    02:00 +4°C° 0 mm 2 m/s 739 mmHg 77%
    03:00 +3°C° 0 mm 2 m/s 739 mmHg 79%
    04:00 +4°C° 0 mm 1 m/s 739 mmHg 80%
    05:00 +5°C° 0 mm 1 m/s 739 mmHg 77%
    06:00 +6°C° 0 mm 1 m/s 739 mmHg 75%
    07:00 +6°C° 0 mm 1 m/s 740 mmHg 72%
    08:00 +9°C° 0 mm 1 m/s 740 mmHg 65%
    09:00 +12°C° 0 mm 1 m/s 740 mmHg 58%
    10:00 +14°C° 0 mm 1 m/s 740 mmHg 51%
    11:00 +15°C° 0 mm 1 m/s 739 mmHg 52%
    12:00 +16°C° 0 mm 1 m/s 739 mmHg 52%
    13:00 +17°C° 0 mm 2 m/s 739 mmHg 52%
    14:00 +17°C° 0 mm 2 m/s 739 mmHg 56%
    15:00 +17°C° 0 mm 2 m/s 739 mmHg 59%
    16:00 +17°C° 0 mm 2 m/s 739 mmHg 62%
    17:00 +14°C° 0 mm 2 m/s 739 mmHg 72%
    18:00 +11°C° 0 mm 1 m/s 739 mmHg 81%
    19:00 +8°C° 0 mm 1 m/s 739 mmHg 91%
    20:00 +8°C° 0 mm 1 m/s 739 mmHg 91%
    21:00 +8°C° 0 mm 1 m/s 739 mmHg 91%
    22:00 +7°C° 0 mm 1 m/s 739 mmHg 92%
    23:00 +7°C° 0 mm 1 m/s 740 mmHg 92%

    29 Martie, Miercuri

    Timp Temperatura Precipitaţii Vânt Presiune Umiditate
    00:00 +7°C° 0 mm 1 m/s 740 mmHg 92%
    01:00 +7°C° 0 mm 1 m/s 740 mmHg 92%
    02:00 +7°C° 0 mm 1 m/s 740 mmHg 92%
    03:00 +7°C° 0 mm 1 m/s 740 mmHg 92%
    04:00 +7°C° 0 mm 1 m/s 740 mmHg 92%
    05:00 +8°C° 0 mm 1 m/s 741 mmHg 91%
    06:00 +9°C° 0 mm 1 m/s 741 mmHg 90%
    07:00 +9°C° 0 mm 1 m/s 742 mmHg 89%
    08:00 +12°C° 0 mm 1 m/s 742 mmHg 82%
    09:00 +14°C° 0 mm 1 m/s 742 mmHg 75%
    10:00 +16°C° 0 mm 2 m/s 742 mmHg 68%
    11:00 +17°C° 0 mm 2 m/s 741 mmHg 66%
    12:00 +18°C° 0 mm 2 m/s 741 mmHg 63%
    13:00 +18°C° 0 mm 3 m/s 741 mmHg 61%
    14:00 +18°C° 0 mm 3 m/s 741 mmHg 63%
    15:00 +18°C° 0 mm 2 m/s 740 mmHg 65%
    16:00 +18°C° 0 mm 2 m/s 740 mmHg 67%
    17:00 +15°C° 0 mm 2 m/s 740 mmHg 75%
    18:00 +12°C° 0 mm 1 m/s 740 mmHg 84%
    19:00 +9°C° 0 mm 1 m/s 740 mmHg 92%
    20:00 +8°C° 0 mm 0 m/s 740 mmHg 92%
    21:00 +7°C° 0 mm 0 m/s 740 mmHg 92%
    22:00 +7°C° 0 mm 0 m/s 740 mmHg 93%
    23:00 +6°C° 0 mm 0 m/s 740 mmHg 93%
    Arată mai mult